Wind_Speed
16 20 21 28 29 23 20 20 21 21 21 20 19 18 17 16 16 17 17 17 17 15 15 13 9 6 4 4 4 4 5 3
17 18 21 19 20 20 22 25 25 25 25 23 21 21 19 18 17 17 18 18 16 14 13 10 8 4 2 3 2 2 2 1
14 19 24 24 24 23 24 27 29 28 29 28 24 23 20 17 17 18 18 16 14 13 10 8 7 4 6 4 1 1 2 1
10 17 26 29 30 30 32 32 31 31 32 28 20 21 17 18 20 20 18 16 14 11 10 9 8 6 5 4 3 2 1 2
10 15 20 31 33 33 33 34 32 33 30 29 25 25 22 21 26 21 19 17 16 13 10 9 6 5 5 4 2 2 2 3
14 18 24 25 27 31 32 31 31 32 33 29 24 26 23 19 24 21 20 18 14 12 10 7 6 7 5 3 2 2 3 4
10 16 21 23 25 28 30 31 31 32 33 28 26 23 23 18 24 23 20 16 14 13 9 9 9 5 6 4 3 5 4 3
9 10 18 21 24 26 26 28 29 32 33 31 26 23 22 20 24 25 22 20 17 15 12 9 6 7 6 3 5 7 5 5
13 14 19 21 22 25 29 32 28 32 32 30 26 24 21 20 22 26 24 23 20 13 9 8 7 7 6 6 6 7 7 5
15 15 21 23 25 31 30 28 29 31 30 26 27 24 21 25 25 28 26 23 16 12 7 6 11 10 9 7 7 9 7 6
9 12 21 23 28 27 24 28 30 29 27 28 26 25 23 26 27 29 23 17 8 9 7 12 13 11 10 9 10 9 9 8
8 9 16 20 20 23 29 30 30 30 29 28 26 25 27 28 28 24 18 13 9 7 13 14 12 14 13 11 12 12 12 11
9 12 16 21 25 30 33 32 31 29 25 26 26 26 27 24 17 12 3 3 9 11 12 13 14 14 13 14 15 14 14 13
7 7 12 18 20 22 25 26 25 24 26 27 25 27 21 16 9 10 11 10 11 11 12 11 11 13 15 17 17 17 14 13
8 6 7 15 20 24 24 23 24 26 26 27 29 25 17 14 11 13 14 12 9 7 7 9 11 13 14 15 16 15 14 16
9 8 7 14 18 20 20 23 26 27 27 26 20 15 13 15 14 12 8 5 4 7 9 8 8 10 12 14 14 15 17 17
4 7 9 12 16 19 21 23 24 27 25 19 17 16 16 14 11 6 2 3 6 7 8 9 11 12 13 14 17 19 19 19
7 7 8 15 18 23 23 25 26 25 20 20 20 18 14 7 2 2 2 6 9 9 10 11 13 15 16 16 16 18 20 20
7 10 15 20 23 24 26 26 23 22 23 22 18 11 5 3 2 7 9 10 11 11 12 13 16 18 18 19 19 20 21 21
Wind_Direction
200 192 195 202 209 220 223 213 199 193 190 186 182 181 181 180 173 169 166 168 166 161 151 144 145 132 119 102 81 75 60 47
209 216 207 201 203 209 206 199 197 193 185 180 179 176 175 168 167 168 169 169 163 163 159 153 155 155 138 149 127 115 145 315
207 207 207 207 205 203 204 203 198 199 196 189 186 181 176 176 175 174 178 175 172 173 171 165 168 173 168 169 175 142 202 238
196 195 201 206 211 210 208 208 204 199 197 189 187 178 175 182 181 183 184 187 186 183 178 174 172 166 175 210 224 216 286 269
208 198 200 201 207 212 211 212 208 201 199 196 191 185 179 194 192 187 184 182 186 186 182 174 169 201 198 224 202 207 237 288
207 204 205 205 208 212 212 213 210 207 206 204 197 200 204 199 193 189 190 191 192 186 186 187 196 192 188 181 213 282 305 279
205 197 198 200 205 210 212 211 211 214 212 207 204 209 212 195 189 190 188 189 191 196 191 199 177 216 218 186 269 304 292 280
179 170 176 182 194 206 215 213 206 214 215 210 212 216 210 201 192 189 188 190 187 171 175 172 288 266 224 271 297 309 300 297
191 184 178 182 186 203 212 216 209 213 216 213 215 213 209 203 199 197 198 193 174 177 185 272 283 225 263 279 304 308 306 306
193 181 183 177 186 210 211 210 213 218 213 215 216 214 219 203 197 198 187 176 176 183 230 248 224 239 251 275 302 302 283 276
179 180 183 183 197 208 215 223 224 216 214 212 210 216 205 201 195 177 174 173 187 233 239 221 224 238 256 267 282 266 254 259
197 196 190 183 192 200 216 213 211 206 205 206 207 195 187 179 171 172 174 185 228 209 203 216 241 248 247 254 265 261 257 262
192 192 182 175 185 196 202 203 201 201 196 186 177 174 160 153 152 154 238 206 218 196 212 232 241 252 258 264 269 265 263 266
181 175 181 182 183 184 192 195 191 186 178 172 165 153 152 151 183 227 218 193 198 201 230 250 265 272 276 278 277 274 267 276
187 179 169 164 173 176 181 180 181 174 174 168 159 159 172 196 192 185 175 178 200 225 255 275 282 282 286 289 284 271 269 279
192 169 160 142 147 165 169 165 167 174 166 158 160 176 176 163 157 158 169 190 241 284 284 280 288 299 305 296 277 269 274 278
183 151 149 144 147 146 148 151 151 161 159 158 171 159 149 142 149 147 258 297 293 288 276 287 297 301 307 294 277 273 273 275
149 135 126 136 141 144 144 155 160 158 160 157 147 140 139 137 133 99 304 289 288 277 279 288 295 299 303 298 290 277 272 274
99 113 116 131 148 156 157 156 150 148 140 134 134 132 119 112 18 309 280 277 276 283 289 295 300 304 306 299 286 274 270 275
Height
802 806 808 810 811 815 817 820 824 828 831 836 838 839 842 844 846 848 849 852 855 857 859 861 863 866 867 867 868 870 869 869
799 802 806 809 810 813 815 818 822 825 828 832 836 838 841 843 845 848 850 853 855 858 859 861 863 865 866 867 868 868 867 868
794 797 800 803 806 809 812 815 818 822 825 829 832 836 839 842 844 847 851 853 855 858 859 860 863 865 866 867 867 867 867 866
791 793 795 797 800 803 808 812 815 819 824 827 831 835 838 842 844 847 850 852 855 857 858 860 862 863 864 865 864 865 866 866
785 787 790 791 794 800 805 809 814 819 822 825 827 831 835 838 842 845 849 851 853 855 857 858 860 862 861 863 863 863 863 864
779 781 784 789 794 798 802 806 811 817 821 822 826 831 834 836 840 843 846 848 851 853 854 857 857 858 860 860 863 863 861 861
774 778 783 788 791 796 800 803 809 813 818 821 824 827 831 833 836 840 843 847 850 852 855 855 855 858 858 857 860 859 859 858
771 774 778 783 789 792 798 802 805 809 813 817 820 824 827 829 833 836 840 844 847 849 852 855 856 856 857 855 856 857 856 855
763 768 772 777 785 790 792 796 800 804 809 813 817 820 823 826 830 834 837 839 842 848 851 852 851 854 855 855 853 854 853 852
756 763 768 774 780 783 785 791 794 799 804 809 813 816 819 822 825 828 831 835 840 842 845 847 850 851 852 852 852 852 850 848
755 759 763 769 772 777 782 787 790 795 800 804 808 811 815 818 820 825 830 833 839 839 841 847 848 849 849 848 848 848 847 845
753 756 759 765 769 775 781 784 788 792 796 799 803 808 812 815 820 823 826 831 832 838 839 843 846 846 845 845 844 844 843 842
753 754 758 763 769 775 779 782 787 790 794 798 802 808 813 817 824 829 832 835 835 835 839 840 841 842 842 841 840 839 838 837
751 754 757 761 767 771 777 781 785 789 793 798 804 809 815 817 823 824 831 830 834 835 838 839 839 839 838 837 836 834 834 834
747 751 753 758 762 767 773 778 783 789 795 798 801 806 814 818 820 825 828 830 832 833 835 836 835 835 833 832 831 830 830 829
745 749 752 757 763 768 773 778 784 790 796 801 805 810 815 820 824 826 829 830 831 832 832 832 831 831 829 828 827 826 825 824
745 747 752 759 763 769 777 782 787 793 798 803 807 813 819 821 824 826 829 829 830 830 829 829 828 827 826 824 822 821 820 818
744 749 754 760 766 771 778 784 788 793 800 806 811 816 819 822 824 824 826 827 827 827 826 825 824 822 821 819 817 815 813 812
749 752 757 762 767 772 778 785 791 797 803 809 814 818 820 822 824 824 824 824 824 823 822 821 819 817 815 813 811 809 807 806